Theta_e
317 318 316 317 319 318 318 320 319 318 318 319 319 317 315 311 308 308 307 307 307 307 307 306 306 306 306 308 309 307 306 306 306 306 306 306 306 305 305 304 304 304
316 317 316 315 319 319 318 319 320 318 317 319 320 319 317 314 311 309 308 308 307 307 307 307 306 306 306 306 307 306 306 306 306 306 306 306 305 305 304 304 304 304
317 318 318 316 318 319 319 318 319 318 317 318 319 319 319 317 313 310 309 308 308 308 308 307 307 307 306 306 306 306 306 306 305 305 305 305 305 305 304 304 304 304
319 318 319 319 318 319 319 319 320 320 318 317 318 319 319 318 316 312 309 309 309 308 308 308 308 307 307 307 307 307 306 306 306 305 305 305 306 305 305 305 305 305
321 320 320 319 318 318 319 319 319 320 319 318 318 319 319 319 317 313 310 309 309 309 309 308 308 308 308 308 308 307 307 307 306 306 306 306 306 306 306 306 306 306
322 322 321 321 320 319 318 319 319 320 320 319 318 318 319 319 317 315 312 310 310 309 309 309 309 309 309 308 308 308 308 308 307 306 306 306 306 306 306 306 306 306
323 323 323 322 321 320 319 319 320 319 319 319 319 319 319 319 319 318 316 314 313 312 310 310 310 309 309 309 309 309 308 308 308 308 307 307 307 306 306 305 305 306
323 323 324 323 321 320 319 319 320 320 319 319 319 319 319 319 319 319 318 318 317 315 314 313 311 310 310 310 309 309 309 309 309 308 308 309 309 307 306 306 305 305
323 323 323 322 321 321 320 320 320 320 319 319 319 319 319 319 319 319 319 319 319 318 317 316 315 313 312 311 310 309 310 310 309 309 309 309 309 308 307 308 307 305
324 324 324 323 322 322 322 321 321 321 321 319 318 318 318 318 319 319 318 318 319 319 319 318 317 316 314 313 312 311 310 310 310 310 309 309 309 308 308 309 308 306
325 325 325 323 322 322 321 321 321 321 321 319 318 318 318 318 319 319 318 318 318 319 320 319 319 318 316 316 314 313 312 311 311 310 310 310 310 309 309 308 308 307
323 324 324 323 323 323 323 322 321 319 319 319 319 319 318 316 317 318 318 318 318 319 319 319 319 319 318 317 316 315 314 312 312 311 311 310 310 310 309 309 308 306
319 320 322 322 322 322 322 322 321 319 318 317 318 318 318 317 317 318 318 319 318 318 319 319 319 320 319 318 317 316 315 314 313 312 312 311 311 311 310 309 309 307
314 315 316 316 316 316 317 318 318 317 316 317 317 317 318 319 319 318 319 319 318 318 319 319 319 319 319 319 318 317 316 315 314 313 312 311 311 311 311 310 310 308
310 310 310 311 311 312 312 313 313 313 313 314 315 315 318 319 319 319 319 320 319 319 318 318 319 319 319 319 318 317 316 315 315 314 313 312 311 311 311 311 310 308
309 309 308 309 310 312 312 311 311 312 312 313 313 315 317 318 319 320 321 321 321 321 320 319 318 318 318 318 318 318 317 316 315 314 313 312 311 311 311 310 309 307
307 307 306 306 309 311 313 314 314 315 316 318 318 316 313 313 315 317 319 319 319 319 320 320 319 319 318 317 318 318 317 316 315 314 313 312 311 310 309 308 307 306
306 306 305 304 305 305 307 309 310 312 313 316 318 316 312 310 310 309 312 315 317 319 321 321 320 320 319 317 317 318 317 316 315 314 313 312 310 309 307 307 306 305
306 308 307 306 305 304 303 303 303 307 311 313 315 316 316 314 309 306 305 308 312 317 320 321 321 320 320 319 317 317 317 316 315 314 313 311 309 307 307 307 306 304
308 309 308 307 305 304 303 303 302 306 311 314 314 315 316 316 313 310 307 305 308 313 316 318 321 321 320 320 318 318 317 315 314 314 312 310 309 307 306 305 304 303
310 310 308 306 304 303 302 302 303 305 309 313 314 314 315 316 316 315 313 310 311 314 315 316 319 320 319 319 318 317 316 315 313 312 311 309 308 306 304 304 304 303
311 310 309 307 305 304 304 304 304 306 309 312 315 315 315 315 315 316 315 314 314 314 314 315 317 318 318 317 317 317 315 313 312 311 310 309 307 306 305 305 304 304
310 310 309 309 307 306 306 306 306 306 308 311 314 315 315 315 314 314 315 315 314 314 313 314 316 316 317 316 316 315 314 312 312 311 310 308 307 306 305 304 303 302
309 309 309 309 308 307 306 306 305 303 306 310 313 314 314 314 314 314 314 314 313 312 313 314 315 315 316 316 315 314 313 312 312 311 309 307 305 304 303 302 302 302
307 308 308 307 307 307 306 305 303 302 305 309 312 313 313 314 314 313 314 314 313 313 313 314 315 315 314 313 313 313 312 311 310 309 307 305 303 302 302 302 302 302
306 307 307 307 308 308 307 305 303 302 303 307 311 313 313 313 313 312 313 313 313 313 313 314 314 313 311 310 311 311 310 309 308 306 305 303 301 301 301 301 301 301
Wind_Speed
23 20 18 18 15 13 13 12 11 11 10 8 6 4 3 2 4 5 7 7 6 7 7 7 6 6 6 7 6 6 6 6 6 5 5 4 4 4 3 4 3 2
22 19 17 17 16 13 12 12 12 11 10 9 8 7 6 2 2 3 4 6 5 6 6 6 6 5 5 6 6 6 6 5 5 5 5 5 5 5 6 6 5 5
21 19 17 16 16 14 12 13 13 11 10 11 9 9 9 6 4 3 2 3 4 5 5 5 5 5 4 4 4 5 6 5 6 6 6 6 6 7 7 7 7 7
21 20 17 15 15 14 13 13 13 12 11 12 11 10 11 10 8 6 4 2 2 3 4 4 4 4 3 3 3 3 4 4 5 5 5 6 6 6 7 7 7 7
21 20 18 16 14 15 14 14 14 13 11 12 12 12 13 13 11 8 6 5 4 3 2 3 3 3 3 3 3 3 3 3 3 3 4 5 5 4 5 5 5 5
20 19 18 17 16 16 15 15 16 15 13 12 13 14 15 15 14 11 9 7 7 6 5 4 4 4 4 5 5 4 4 4 3 2 2 2 3 3 2 2 2 3
18 17 17 18 19 18 17 17 17 17 16 15 14 14 15 16 15 13 12 11 10 9 8 7 7 7 7 7 8 7 6 6 4 3 3 4 3 2 1 1 1 2
16 17 17 17 19 20 20 20 19 18 19 18 17 16 15 16 16 14 13 13 13 13 13 11 10 10 10 10 10 10 9 8 7 6 5 6 6 5 4 3 1 1
13 16 17 16 18 19 19 20 21 20 20 20 20 19 17 16 17 16 14 15 15 15 16 16 14 13 12 12 12 12 12 11 11 9 8 8 9 7 6 6 5 3
13 13 14 16 19 19 17 17 19 20 20 20 20 19 18 16 17 18 17 16 17 18 18 18 17 16 16 15 15 14 15 15 13 12 11 11 10 8 6 8 9 7
13 11 12 14 18 19 19 19 20 19 18 18 17 17 18 17 18 19 19 18 19 20 20 19 19 19 19 19 18 17 17 17 16 15 14 13 12 10 8 10 11 10
11 11 13 15 16 18 20 20 21 21 18 17 18 19 20 20 21 22 21 20 20 20 21 21 20 20 20 21 21 20 20 20 19 17 15 14 13 12 11 12 12 12
11 11 12 12 12 14 15 15 17 19 18 17 19 22 24 24 25 25 23 22 23 23 23 22 22 22 21 22 23 23 22 22 20 19 17 16 15 14 14 14 12 12
9 9 8 6 6 6 7 7 7 8 7 7 10 15 19 20 21 21 21 23 25 26 26 25 25 25 24 24 25 25 24 23 22 21 20 19 18 18 17 16 15 13
4 4 3 3 3 3 4 5 6 6 6 7 8 10 13 16 17 16 17 20 24 27 27 26 28 30 29 28 28 27 26 25 25 24 23 21 21 21 19 18 17 15
3 1 1 0 1 3 4 4 6 8 9 10 10 9 11 13 15 14 16 18 21 24 25 27 29 32 32 31 29 28 27 28 27 26 24 22 23 23 21 19 17 15
2 3 3 2 2 1 1 1 2 3 5 6 7 8 9 10 12 13 15 17 19 20 22 26 28 30 32 32 29 29 30 30 29 26 24 22 22 21 19 18 15 13
6 4 3 3 2 1 1 2 2 3 4 6 7 8 8 9 10 12 14 17 19 20 21 24 26 27 30 32 31 30 31 31 30 27 25 23 21 19 17 16 15 13
5 3 2 3 4 5 5 6 6 5 6 6 6 8 9 11 12 12 12 14 18 21 22 24 26 27 29 31 32 33 34 34 32 30 27 25 22 20 18 16 13 11
3 3 2 2 4 6 7 8 8 6 6 8 9 9 10 13 15 13 11 11 13 19 22 23 24 26 28 29 32 34 35 35 33 30 27 24 21 19 17 13 11 12
2 2 3 5 6 7 8 9 9 7 7 9 10 10 10 12 14 15 14 11 11 16 20 20 22 23 25 27 30 32 34 34 32 28 25 23 20 18 16 15 15 16
5 4 4 5 6 8 9 8 8 7 7 9 11 11 10 11 12 14 16 15 14 16 18 20 22 22 22 25 28 30 31 31 29 27 26 25 23 20 19 18 16 15
6 5 5 5 5 6 7 7 8 8 7 8 10 11 11 11 12 13 14 15 18 20 18 18 21 22 23 24 26 27 28 28 29 29 28 26 22 19 17 15 14 14
6 6 6 6 7 7 7 8 10 10 8 8 10 12 12 13 13 12 13 16 21 22 19 18 18 20 21 22 23 26 28 29 31 30 27 22 17 14 12 12 11 12
8 8 9 10 10 9 10 11 12 11 9 8 10 12 13 14 13 12 15 19 22 21 19 17 17 18 19 20 22 26 28 29 28 26 22 16 11 10 10 10 9 10
9 10 10 10 10 10 12 13 14 13 11 10 11 13 13 13 13 14 17 21 22 20 19 18 18 18 18 19 22 24 26 26 23 20 16 13 10 10 11 10 9 11
Wind_Direction
173 182 181 179 185 185 179 178 183 181 177 196 211 209 212 140 124 128 122 123 124 122 121 118 118 121 125 127 127 124 117 112 106 98 93 88 80 75 72 75 77 76
176 181 182 177 180 191 186 177 193 195 176 191 212 219 236 225 161 151 125 129 135 131 130 129 127 128 132 136 136 131 125 119 114 111 107 100 89 84 80 76 70 59
178 179 181 177 175 192 197 179 197 210 185 186 208 222 235 240 230 224 174 147 145 141 143 139 138 141 137 141 141 135 131 128 125 122 115 106 102 100 95 91 87 79
180 178 180 181 177 189 199 185 193 211 199 192 199 215 231 241 243 249 261 251 186 158 158 157 156 154 154 162 168 153 141 136 128 124 122 119 116 109 103 98 91 85
182 179 179 183 181 188 198 195 194 202 207 206 201 207 225 238 245 254 267 273 270 256 208 197 194 184 186 201 211 207 193 175 151 145 144 134 129 121 112 103 92 83
184 183 183 184 184 189 197 202 203 201 203 213 212 209 220 235 245 252 261 267 268 273 269 255 250 239 227 229 234 238 240 235 219 204 209 182 163 156 142 114 90 81
184 185 189 191 190 192 194 197 205 206 201 208 215 214 221 233 240 245 255 260 259 263 267 264 262 261 257 251 248 247 249 250 251 253 252 249 245 242 246 270 16 8
192 191 194 199 200 204 207 206 210 211 204 204 208 210 218 232 238 240 244 249 252 256 262 265 265 263 261 258 257 256 254 255 264 271 260 251 260 277 278 266 264 274
193 196 198 203 205 207 215 219 219 217 210 204 205 209 214 225 237 241 241 244 246 246 251 259 264 267 266 261 258 257 257 258 263 268 264 255 260 274 275 270 278 277
189 193 197 206 210 211 218 221 221 222 218 213 213 217 217 218 230 240 243 246 244 239 241 248 254 262 269 269 263 257 258 261 261 260 257 254 259 263 252 253 272 287
199 200 207 216 219 219 221 219 221 226 227 227 229 229 225 224 230 235 239 244 244 241 239 241 245 252 259 265 267 261 258 259 259 258 253 250 254 256 240 237 256 273
210 216 221 226 225 224 224 225 230 234 236 239 242 242 241 241 243 241 236 236 239 242 242 241 243 246 249 255 261 261 258 255 254 253 250 247 248 247 241 241 252 262
214 214 216 221 222 224 229 233 235 236 239 246 251 253 252 249 251 249 242 237 238 239 239 239 239 242 245 248 252 255 256 252 248 244 244 245 244 241 246 254 261 262
187 186 187 193 194 206 224 232 230 228 231 241 249 254 252 250 254 254 246 243 242 239 237 237 239 240 241 244 247 248 249 247 244 241 241 243 243 243 248 258 265 268
154 163 172 195 219 246 260 261 266 272 269 266 267 263 253 249 253 253 247 245 244 242 243 242 242 242 243 245 244 242 242 242 241 241 244 248 249 248 249 255 261 267
124 139 140 120 299 298 301 298 288 282 276 272 269 262 252 251 253 251 249 249 248 249 250 246 243 245 248 247 242 237 237 238 237 239 246 251 250 247 250 256 261 266
223 210 191 187 171 169 309 345 299 270 264 254 250 254 257 260 263 262 259 257 256 256 254 250 247 246 246 245 239 233 234 235 234 239 244 245 243 244 249 255 263 272
226 226 224 235 247 261 267 272 269 266 263 252 253 266 271 266 267 271 270 265 262 260 257 255 254 248 242 240 236 233 233 232 233 239 241 236 235 238 243 253 269 280
195 198 223 252 285 305 309 310 310 299 286 275 264 268 272 272 275 276 274 271 265 260 257 254 253 248 242 239 236 233 233 232 234 238 238 233 232 235 242 254 267 270
168 177 210 249 289 306 307 309 312 297 272 264 258 255 258 266 273 277 277 275 264 258 258 256 253 250 248 244 238 233 231 231 233 235 235 235 236 240 247 250 241 238
188 216 272 299 314 319 315 311 311 298 273 262 260 257 251 258 272 280 284 283 264 252 253 256 254 251 249 243 235 231 230 231 231 232 234 237 238 235 238 241 239 245
198 222 271 296 310 317 319 317 309 292 275 267 267 264 254 251 258 268 278 282 270 255 251 252 252 250 246 239 233 232 234 232 230 232 236 239 239 238 243 252 260 270
212 230 247 262 283 300 307 305 299 291 278 265 265 266 263 256 251 253 263 268 265 262 258 252 250 250 248 243 240 242 243 239 236 238 240 241 243 247 253 260 268 275
232 235 236 249 264 276 283 286 294 301 292 268 261 262 262 260 258 257 254 253 257 261 260 253 250 251 250 248 248 248 246 241 239 240 240 240 245 254 261 268 272 272
246 241 246 261 271 279 284 288 297 304 295 272 263 260 258 258 261 259 253 252 255 257 254 250 246 246 250 253 254 250 243 236 236 237 236 236 243 258 269 279 282 273
256 254 258 264 265 269 278 285 293 297 290 271 258 255 256 258 257 249 245 250 254 252 248 243 239 244 253 257 252 246 238 232 231 231 227 219 218 235 246 251 260 265